VIR110 KATL-EGCC

Flight info

Callsign VIR110
Flight time N/A
Altitude 37000
Route PLMMR3 BURGG Q22 RBV Q430 ACK DCT KANNI/N0457F390 N97B SUPRY/M079F400 DCT 46N050W 48N040W 50N030W 52N020W DCT LIMRI DCT XETBO/N0452F390 DCT BOFUM Q37 MALUD
Aircraft A333/H-SDE3GHIJ2J3J5M1RVWXY/LB2D1

Departure

Time N/A
Airport Hartsfield Jackson Atlanta International Airport (KATL)

Arrival

Time 2026-05-05 21:33
Airport Manchester Airport (EGCC)
Time Latitude Longitude Altitude Speed Heading
2026-05-05 20:19 52.56197 -11.32287 39125 ft 471 kts 71°
2026-05-05 20:19 52.58204 -11.22029 39120 ft 471 kts 71°
2026-05-05 20:20 52.60200 -11.11771 39122 ft 471 kts 71°
2026-05-05 20:20 52.62186 -11.01506 39120 ft 471 kts 71°
2026-05-05 20:21 52.64163 -10.91235 39120 ft 471 kts 71°
2026-05-05 20:21 52.66130 -10.80959 39117 ft 470 kts 71°
2026-05-05 20:22 52.68086 -10.70687 39113 ft 470 kts 72°
2026-05-05 20:22 52.70038 -10.60382 39111 ft 471 kts 72°
2026-05-05 20:23 52.71980 -10.50071 39117 ft 471 kts 72°
2026-05-05 20:23 52.73911 -10.39759 39109 ft 471 kts 72°
2026-05-05 20:24 52.75821 -10.29506 39107 ft 470 kts 72°
2026-05-05 20:24 52.77736 -10.19172 39108 ft 471 kts 72°
2026-05-05 20:25 52.79642 -10.08824 39096 ft 471 kts 72°
2026-05-05 20:25 52.81539 -9.98465 39108 ft 471 kts 72°
2026-05-05 20:26 52.83430 -9.88084 39106 ft 472 kts 72°
2026-05-05 20:26 52.85313 -9.77686 39100 ft 472 kts 72°
2026-05-05 20:27 52.87185 -9.67296 39098 ft 472 kts 72°
2026-05-05 20:27 52.89051 -9.56873 39099 ft 472 kts 73°
2026-05-05 20:28 52.90908 -9.46445 39095 ft 472 kts 73°
2026-05-05 20:28 52.92754 -9.36013 39096 ft 472 kts 73°
2026-05-05 20:29 52.94590 -9.25579 39094 ft 472 kts 73°
2026-05-05 20:29 52.96418 -9.15131 39096 ft 472 kts 73°
2026-05-05 20:30 52.98239 -9.04662 39095 ft 472 kts 73°
2026-05-05 20:30 53.00038 -8.94256 39099 ft 472 kts 73°
2026-05-05 20:31 53.01840 -8.83774 39097 ft 472 kts 73°
2026-05-05 20:31 53.03635 -8.73270 39099 ft 472 kts 73°
2026-05-05 20:32 53.05418 -8.62769 39095 ft 472 kts 73°
2026-05-05 20:32 53.07192 -8.52255 39090 ft 473 kts 74°
2026-05-05 20:33 53.08960 -8.41722 39093 ft 473 kts 74°
2026-05-05 20:33 53.10719 -8.31179 39087 ft 473 kts 74°
2026-05-05 20:34 53.12468 -8.20624 39090 ft 473 kts 74°
2026-05-05 20:34 53.14210 -8.10050 39080 ft 473 kts 74°
2026-05-05 20:35 53.15940 -7.99484 39083 ft 473 kts 74°
2026-05-05 20:35 53.17661 -7.88906 39074 ft 473 kts 74°
2026-05-05 20:36 53.19371 -7.78326 39076 ft 473 kts 74°
2026-05-05 20:36 53.21073 -7.67734 39069 ft 473 kts 75°
2026-05-05 20:37 53.22767 -7.57125 39066 ft 473 kts 75°
2026-05-05 20:37 53.24450 -7.46521 39068 ft 473 kts 75°
2026-05-05 20:38 53.26122 -7.35915 39062 ft 473 kts 75°
2026-05-05 20:38 53.27786 -7.25291 39066 ft 473 kts 75°
2026-05-05 20:39 53.29430 -7.14726 39065 ft 473 kts 75°
2026-05-05 20:39 53.31074 -7.04096 39062 ft 473 kts 75°
2026-05-05 20:40 53.32712 -6.93431 39057 ft 473 kts 75°
2026-05-05 20:40 53.34338 -6.82773 39060 ft 473 kts 75°
2026-05-05 20:41 53.35956 -6.72103 39059 ft 473 kts 75°
2026-05-05 20:41 53.37565 -6.61417 39056 ft 473 kts 76°
2026-05-05 20:42 53.39165 -6.50721 39075 ft 473 kts 76°
2026-05-05 20:42 53.40754 -6.40025 39075 ft 473 kts 76°
2026-05-05 20:43 53.42333 -6.29327 39075 ft 473 kts 76°
2026-05-05 20:43 53.43903 -6.18616 39059 ft 473 kts 76°
2026-05-05 20:44 53.45464 -6.07891 39059 ft 474 kts 76°
2026-05-05 20:44 53.47009 -5.97201 38813 ft 475 kts 76°
2026-05-05 20:44 53.47785 -5.91810 38556 ft 475 kts 76°
2026-05-05 20:45 53.49338 -5.80952 37993 ft 476 kts 76°
2026-05-05 20:45 53.50108 -5.75540 37723 ft 476 kts 76°
2026-05-05 20:45 53.50863 -5.70214 37471 ft 476 kts 76°
2026-05-05 20:46 53.51627 -5.64804 37193 ft 476 kts 76°
2026-05-05 20:46 53.52389 -5.59393 36922 ft 476 kts 76°
2026-05-05 20:46 53.53118 -5.54000 36545 ft 472 kts 80°
2026-05-05 20:46 53.53489 -5.48559 36195 ft 468 kts 88°
2026-05-05 20:47 53.53525 -5.43092 35653 ft 468 kts 91°
2026-05-05 20:47 53.53461 -5.37596 34996 ft 471 kts 92°
2026-05-05 20:47 53.53337 -5.32090 34338 ft 474 kts 93°
2026-05-05 20:47 53.53183 -5.26534 33595 ft 476 kts 93°
2026-05-05 20:48 53.53019 -5.20967 32885 ft 477 kts 93°
2026-05-05 20:48 53.52853 -5.15396 32161 ft 478 kts 93°
2026-05-05 20:48 53.52678 -5.09832 31586 ft 475 kts 93°
2026-05-05 20:48 53.52500 -5.04312 31131 ft 470 kts 93°
2026-05-05 20:49 53.52321 -4.98849 30646 ft 466 kts 94°
2026-05-05 20:49 53.52143 -4.93435 30134 ft 463 kts 94°
2026-05-05 20:49 53.51966 -4.88056 29589 ft 459 kts 94°
2026-05-05 20:49 53.51789 -4.82729 29090 ft 454 kts 93°
2026-05-05 20:50 53.51673 -4.79235 28756 ft 451 kts 94°
2026-05-05 20:50 53.51498 -4.73994 28251 ft 447 kts 93°
2026-05-05 20:50 53.51322 -4.68811 27756 ft 443 kts 94°
2026-05-05 20:50 53.51146 -4.63664 27282 ft 439 kts 94°
2026-05-05 20:51 53.50969 -4.58568 26801 ft 435 kts 94°
2026-05-05 20:51 53.50792 -4.53511 26294 ft 433 kts 94°
2026-05-05 20:51 53.50612 -4.48474 25801 ft 430 kts 94°
2026-05-05 20:51 53.50433 -4.43481 25325 ft 427 kts 94°
2026-05-05 20:52 53.50251 -4.38507 24844 ft 425 kts 94°
2026-05-05 20:52 53.50069 -4.33572 24361 ft 423 kts 94°
2026-05-05 20:52 53.49886 -4.28661 23874 ft 421 kts 94°
2026-05-05 20:52 53.49702 -4.23769 23366 ft 418 kts 94°
2026-05-05 20:53 53.49517 -4.18914 22869 ft 414 kts 94°
2026-05-05 20:53 53.49332 -4.14112 22397 ft 410 kts 94°
2026-05-05 20:53 53.49147 -4.09357 21928 ft 406 kts 94°
2026-05-05 20:53 53.48962 -4.04642 21469 ft 403 kts 94°
2026-05-05 20:54 53.48775 -3.99977 21011 ft 399 kts 95°
2026-05-05 20:54 53.48290 -3.95408 20563 ft 395 kts 105°
2026-05-05 20:54 53.47505 -3.91005 20125 ft 392 kts 108°
2026-05-05 20:54 53.46654 -3.86680 19682 ft 389 kts 109°
2026-05-05 20:55 53.45785 -3.82394 19237 ft 387 kts 109°
2026-05-05 20:55 53.44912 -3.78141 18783 ft 384 kts 109°
2026-05-05 20:55 53.44039 -3.73915 18354 ft 382 kts 110°
2026-05-05 20:55 53.43168 -3.69716 17868 ft 380 kts 109°
2026-05-05 20:56 53.42303 -3.65557 17410 ft 376 kts 109°
2026-05-05 20:56 53.41516 -3.61387 17097 ft 376 kts 103°
2026-05-05 20:56 53.41120 -3.57024 16543 ft 380 kts 95°
2026-05-05 20:56 53.40916 -3.52670 16001 ft 378 kts 94°
2026-05-05 20:57 53.40738 -3.48256 15507 ft 374 kts 93°
2026-05-05 20:57 53.40559 -3.43930 15037 ft 370 kts 94°
2026-05-05 20:57 53.40376 -3.39652 14561 ft 367 kts 94°
2026-05-05 20:57 53.40191 -3.35454 14100 ft 364 kts 94°
2026-05-05 20:58 53.40002 -3.31243 13598 ft 362 kts 94°
2026-05-05 20:58 53.39809 -3.27002 13107 ft 358 kts 94°
2026-05-05 20:58 53.39618 -3.22857 12646 ft 356 kts 94°
2026-05-05 20:58 53.39429 -3.18793 12199 ft 353 kts 94°
2026-05-05 20:59 53.39414 -3.14709 11751 ft 349 kts 81°
2026-05-05 20:59 53.40099 -3.10871 11304 ft 343 kts 63°
2026-05-05 20:59 53.41228 -3.07360 10871 ft 340 kts 58°
2026-05-05 20:59 53.42423 -3.03961 10439 ft 337 kts 57°
2026-05-05 21:00 53.43609 -3.00602 9987 ft 334 kts 57°
2026-05-05 21:00 53.44777 -2.97270 9649 ft 326 kts 57°
2026-05-05 21:00 53.45899 -2.94048 9455 ft 313 kts 58°
2026-05-05 21:00 53.46989 -2.90905 9277 ft 301 kts 58°
2026-05-05 21:01 53.48023 -2.87916 9078 ft 291 kts 58°
2026-05-05 21:01 53.49031 -2.84996 8690 ft 289 kts 57°
2026-05-05 21:01 53.50036 -2.82086 8296 ft 287 kts 58°
2026-05-05 21:01 53.51018 -2.79233 7921 ft 285 kts 58°
2026-05-05 21:02 53.51937 -2.76307 7553 ft 283 kts 68°
2026-05-05 21:02 53.52163 -2.73064 7200 ft 282 kts 99°
2026-05-05 21:02 53.51330 -2.70141 6857 ft 279 kts 133°
2026-05-05 21:02 53.49731 -2.68353 6515 ft 276 kts 156°
2026-05-05 21:03 53.47967 -2.67196 6317 ft 267 kts 160°
2026-05-05 21:03 53.46244 -2.66149 6083 ft 261 kts 160°
2026-05-05 21:03 53.44555 -2.65108 5795 ft 257 kts 159°
2026-05-05 21:03 53.42888 -2.64059 5457 ft 256 kts 159°
2026-05-05 21:04 53.41209 -2.63174 5122 ft 254 kts 170°
2026-05-05 21:04 53.39457 -2.62971 4885 ft 250 kts 179°
2026-05-05 21:04 53.37736 -2.62961 4645 ft 245 kts 180°
2026-05-05 21:04 53.36039 -2.62977 4380 ft 242 kts 179°
2026-05-05 21:05 53.34361 -2.63026 4115 ft 240 kts 180°
2026-05-05 21:05 53.32702 -2.63104 3863 ft 237 kts 180°
2026-05-05 21:05 53.31059 -2.63195 3599 ft 235 kts 180°
2026-05-05 21:05 53.29475 -2.62793 3333 ft 228 kts 157°
2026-05-05 21:06 53.28071 -2.61642 3073 ft 223 kts 143°
2026-05-05 21:06 53.26879 -2.60078 2995 ft 213 kts 143°
2026-05-05 21:06 53.25503 -2.59343 2993 ft 211 kts 178°
2026-05-05 21:06 53.24099 -2.60056 3005 ft 217 kts 209°
2026-05-05 21:07 53.22895 -2.61614 3002 ft 221 kts 219°
2026-05-05 21:07 53.21709 -2.63239 2990 ft 220 kts 208°
2026-05-05 21:07 53.20266 -2.63867 2991 ft 214 kts 174°
2026-05-05 21:07 53.18902 -2.63066 2998 ft 207 kts 139°
2026-05-05 21:08 53.18075 -2.61178 3004 ft 202 kts 111°
2026-05-05 21:08 53.17668 -2.58935 2997 ft 202 kts 97°
2026-05-05 21:08 53.17619 -2.56603 2997 ft 201 kts 83°
2026-05-05 21:08 53.18039 -2.54419 3008 ft 195 kts 59°
2026-05-05 21:09 53.18973 -2.52923 3011 ft 182 kts 32°
2026-05-05 21:09 53.20131 -2.52333 2984 ft 173 kts 14°
2026-05-05 21:09 53.21324 -2.52068 2997 ft 170 kts 12°
2026-05-05 21:09 53.22481 -2.51834 2995 ft 169 kts 12°
2026-05-05 21:10 53.23564 -2.51206 2997 ft 163 kts 36°
2026-05-05 21:10 53.24414 -2.49988 2999 ft 161 kts 48°
2026-05-05 21:10 53.25147 -2.48578 3000 ft 161 kts 52°
2026-05-05 21:10 53.25852 -2.47136 2996 ft 160 kts 52°
2026-05-05 21:11 53.26547 -2.45700 2902 ft 159 kts 52°
2026-05-05 21:11 53.27247 -2.44273 2681 ft 159 kts 52°
2026-05-05 21:11 53.27929 -2.42868 2462 ft 152 kts 53°
2026-05-05 21:11 53.28574 -2.41536 2241 ft 142 kts 53°
2026-05-05 21:12 53.29185 -2.40275 2053 ft 138 kts 52°
2026-05-05 21:12 53.29772 -2.39064 1865 ft 131 kts 52°
2026-05-05 21:12 53.30342 -2.37888 1700 ft 130 kts 52°
2026-05-05 21:12 53.30912 -2.36710 1503 ft 130 kts 52°
2026-05-05 21:13 53.31479 -2.35538 1333 ft 130 kts 53°
2026-05-05 21:13 53.32044 -2.34359 1122 ft 129 kts 53°
2026-05-05 21:13 53.32608 -2.33194 913 ft 129 kts 52°
2026-05-05 21:13 53.33183 -2.32046 703 ft 128 kts 51°
2026-05-05 21:14 53.33746 -2.30896 550 ft 128 kts 51°
2026-05-05 21:14 53.34323 -2.29700 565 ft 147 kts 52°
2026-05-05 21:14 53.35093 -2.28177 1085 ft 196 kts 50°
2026-05-05 21:14 53.36014 -2.26351 1724 ft 212 kts 52°
2026-05-05 21:15 53.36961 -2.24382 2456 ft 221 kts 53°
2026-05-05 21:15 53.37869 -2.22454 3098 ft 202 kts 52°
2026-05-05 21:15 53.38731 -2.20635 3430 ft 200 kts 52°
2026-05-05 21:15 53.39574 -2.18867 3504 ft 203 kts 52°
2026-05-05 21:16 53.40450 -2.17022 3499 ft 202 kts 52°
2026-05-05 21:16 53.41325 -2.15184 3499 ft 202 kts 52°
2026-05-05 21:16 53.42201 -2.13342 3496 ft 203 kts 52°
2026-05-05 21:16 53.43080 -2.11487 3497 ft 203 kts 52°
2026-05-05 21:17 53.43953 -2.09646 3512 ft 201 kts 52°
2026-05-05 21:17 53.44829 -2.07805 3508 ft 202 kts 52°
2026-05-05 21:17 53.45706 -2.05958 3517 ft 203 kts 52°
2026-05-05 21:17 53.46565 -2.04107 3517 ft 199 kts 52°
2026-05-05 21:18 53.47402 -2.02288 3501 ft 196 kts 48°
2026-05-05 21:18 53.48545 -2.01095 3511 ft 198 kts 15°
2026-05-05 21:18 53.49892 -2.01273 3505 ft 203 kts 341°
2026-05-05 21:18 53.50987 -2.02820 3514 ft 213 kts 307°
2026-05-05 21:19 53.51401 -2.05238 3509 ft 223 kts 275°
2026-05-05 21:19 53.51358 -2.07857 3518 ft 225 kts 270°
2026-05-05 21:19 53.51305 -2.10474 3517 ft 223 kts 270°
2026-05-05 21:19 53.51265 -2.13073 3515 ft 222 kts 270°
2026-05-05 21:20 53.51220 -2.15673 3524 ft 223 kts 270°
2026-05-05 21:20 53.51179 -2.18271 3505 ft 222 kts 270°
2026-05-05 21:20 53.51144 -2.20856 3504 ft 221 kts 270°
2026-05-05 21:20 53.51112 -2.23433 3505 ft 220 kts 270°
2026-05-05 21:21 53.51077 -2.26014 3516 ft 222 kts 270°
2026-05-05 21:21 53.50977 -2.28599 3507 ft 224 kts 258°
2026-05-05 21:21 53.50311 -2.30946 3517 ft 223 kts 234°
2026-05-05 21:21 53.49357 -2.33014 3508 ft 226 kts 230°
2026-05-05 21:22 53.48358 -2.35049 3513 ft 226 kts 230°
2026-05-05 21:22 53.47355 -2.37068 3501 ft 224 kts 230°
2026-05-05 21:22 53.46355 -2.39080 3512 ft 224 kts 230°
2026-05-05 21:22 53.45362 -2.41084 3510 ft 223 kts 230°
2026-05-05 21:23 53.44367 -2.43086 3507 ft 224 kts 230°
2026-05-05 21:23 53.43370 -2.45088 3498 ft 223 kts 230°
2026-05-05 21:23 53.42373 -2.47095 3493 ft 225 kts 230°
2026-05-05 21:23 53.41370 -2.49118 3462 ft 226 kts 230°
2026-05-05 21:24 53.40367 -2.51133 3385 ft 224 kts 230°
2026-05-05 21:24 53.39368 -2.53145 3330 ft 225 kts 230°
2026-05-05 21:24 53.38371 -2.55146 3311 ft 223 kts 230°
2026-05-05 21:24 53.37379 -2.57143 3283 ft 224 kts 230°
2026-05-05 21:25 53.36351 -2.59097 3251 ft 221 kts 218°
2026-05-05 21:25 53.35031 -2.60299 3228 ft 215 kts 189°
2026-05-05 21:25 53.33559 -2.60410 3213 ft 211 kts 177°
2026-05-05 21:25 53.32092 -2.60501 3222 ft 210 kts 180°
2026-05-05 21:26 53.30706 -2.60614 3191 ft 194 kts 180°
2026-05-05 21:26 53.29385 -2.60726 3150 ft 181 kts 179°
2026-05-05 21:26 53.28215 -2.60313 3104 ft 169 kts 145°
2026-05-05 21:26 53.27323 -2.59112 3069 ft 166 kts 132°
2026-05-05 21:27 53.26519 -2.57730 3053 ft 167 kts 130°
2026-05-05 21:27 53.25728 -2.56309 3035 ft 167 kts 130°
2026-05-05 21:27 53.24932 -2.54910 3009 ft 167 kts 130°
2026-05-05 21:27 53.24134 -2.53481 2991 ft 167 kts 120°
2026-05-05 21:28 53.23971 -2.51664 2996 ft 159 kts 73°
2026-05-05 21:28 53.24470 -2.50065 3005 ft 159 kts 55°
2026-05-05 21:28 53.25150 -2.48605 3002 ft 159 kts 52°
2026-05-05 21:28 53.25846 -2.47173 2998 ft 155 kts 51°
2026-05-05 21:29 53.26498 -2.45829 2907 ft 145 kts 52°
2026-05-05 21:29 53.27127 -2.44521 2715 ft 144 kts 52°
2026-05-05 21:29 53.27753 -2.43231 2513 ft 142 kts 52°
2026-05-05 21:29 53.28368 -2.41963 2309 ft 139 kts 53°
2026-05-05 21:30 53.28964 -2.40733 2119 ft 133 kts 52°
2026-05-05 21:30 53.29534 -2.39557 1940 ft 129 kts 52°
2026-05-05 21:30 53.30100 -2.38389 1769 ft 129 kts 52°
2026-05-05 21:30 53.30664 -2.37224 1576 ft 129 kts 53°
2026-05-05 21:31 53.31231 -2.36054 1407 ft 129 kts 54°
2026-05-05 21:31 53.31795 -2.34887 1201 ft 129 kts 53°
2026-05-05 21:31 53.32355 -2.33723 1022 ft 128 kts 51°
2026-05-05 21:31 53.32922 -2.32575 814 ft 128 kts 51°
2026-05-05 21:32 53.33486 -2.31429 636 ft 127 kts 52°
2026-05-05 21:32 53.34044 -2.30276 449 ft 127 kts 52°
2026-05-05 21:32 53.34593 -2.29133 292 ft 126 kts 52°
2026-05-05 21:32 53.35106 -2.28054 242 ft 100 kts 52°
2026-05-05 21:33 53.35417 -2.27408 263 ft 43 kts 51°
2026-05-05 21:33 53.35579 -2.27072 267 ft 27 kts 51°
2026-05-05 21:33 53.35690 -2.26843 271 ft 24 kts 51°
2026-05-05 21:33 53.35770 -2.26688 270 ft 11 kts 34°
2026-05-05 21:34 53.35841 -2.26685 269 ft 11 kts 351°
2026-05-05 21:34 53.35909 -2.26727 261 ft 7 kts 320°
2026-05-05 21:34 53.35914 -2.26737 260 ft 3 kts 308°
2026-05-05 21:34 53.35924 -2.26794 257 ft 3 kts 256°
2026-05-05 21:35 53.35906 -2.26828 257 ft 9 kts 231°
2026-05-05 21:35 53.35863 -2.26919 257 ft 11 kts 232°
2026-05-05 21:35 53.35817 -2.27042 256 ft 14 kts 240°
2026-05-05 21:35 53.35754 -2.27183 256 ft 16 kts 232°
2026-05-05 21:36 53.35679 -2.27337 256 ft 18 kts 231°
2026-05-05 21:36 53.35624 -2.27448 257 ft 9 kts 231°
2026-05-05 21:36 53.35613 -2.27483 256 ft 1 kts 246°
2026-05-05 21:36 53.35621 -2.27516 253 ft 6 kts 306°
2026-05-05 21:37 53.35675 -2.27595 251 ft 12 kts 325°
2026-05-05 21:37 53.35750 -2.27652 251 ft 6 kts 340°
2026-05-05 21:37 53.35774 -2.27660 251 ft 1 kts 352°
2026-05-05 21:37 53.35780 -2.27669 251 ft 3 kts 322°
2026-05-05 21:38 53.35824 -2.27754 251 ft 14 kts 311°
2026-05-05 21:38 53.35902 -2.27843 251 ft 14 kts 351°
2026-05-05 21:38 53.35993 -2.27904 251 ft 9 kts 322°
2026-05-05 21:38 53.36029 -2.27894 250 ft 9 kts 28°
2026-05-05 21:39 53.36089 -2.27892 251 ft 9 kts 329°
2026-05-05 21:39 53.36143 -2.27976 251 ft 13 kts 315°
2026-05-05 21:39 53.36218 -2.28103 251 ft 17 kts 314°
2026-05-05 21:39 53.36304 -2.28248 251 ft 18 kts 315°
2026-05-05 21:40 53.36373 -2.28366 251 ft 7 kts 314°
2026-05-05 21:40 53.36397 -2.28401 251 ft 3 kts 328°
2026-05-05 21:40 53.36419 -2.28392 251 ft 3 kts 25°
2026-05-05 21:40 53.36423 -2.28386 251 ft 0 kts 31°
2026-05-05 21:41 53.36424 -2.28386 251 ft 0 kts 31°
2026-05-05 21:41 53.36434 -2.28377 251 ft 2 kts 24°
2026-05-05 21:41 53.36448 -2.28382 251 ft 2 kts 338°
2026-05-05 21:41 53.36480 -2.28419 251 ft 7 kts 318°
2026-05-05 21:42 53.36505 -2.28460 251 ft 3 kts 315°
2026-05-05 21:42 53.36516 -2.28480 251 ft 0 kts 315°